"read_dt","SO2 (ppb)","flags","PMT voltage (V)","lamp voltage (V)","lamp intensity (Hz)","internal temp (C)","react chamber temp (C)","sample flow (l/min)","pres (mmHg)","SO2 bkg (ppb)","SO2 coefficient"
2014-10-03 00:00:00,2122E-3,5C000000,-0724,0824,12160,026.6,045.4,0.482,743.7,01.18,0.508
2014-10-03 00:01:00,2173E-3,5C000000,-0724,0824,12268,026.6,045.4,0.482,743.7,01.18,0.508
2014-10-03 00:02:00,2151E-3,5C000000,-0724,0826,12174,026.6,045.4,0.482,743.7,01.18,0.508
2014-10-03 00:03:00,2213E-3,5C000000,-0724,0824,12240,026.6,045.5,0.481,743.7,01.18,0.508
2014-10-03 00:04:00,2303E-3,5C000000,-0724,0825,12265,026.6,045.4,0.481,743.7,01.18,0.508
2014-10-03 00:05:00,2329E-3,5C000000,-0724,0824,12260,026.6,045.4,0.481,743.7,01.18,0.508
2014-10-03 00:06:00,2156E-3,5C000000,-0724,0824,12313,026.6,045.4,0.481,743.8,01.18,0.508
2014-10-03 00:07:00,2188E-3,5C000000,-0724,0825,12124,026.5,045.4,0.482,743.8,01.18,0.508
2014-10-03 00:08:00,2133E-3,5C000000,-0724,0825,12273,026.5,045.4,0.482,743.8,01.18,0.508
2014-10-03 00:09:00,2143E-3,5C000000,-0724,0825,12325,026.4,045.4,0.482,743.8,01.18,0.508
2014-10-03 00:10:00,2336E-3,5C000000,-0724,0825,12056,026.3,045.4,0.482,743.8,01.18,0.508
2014-10-03 00:11:00,2288E-3,5C000000,-0724,0825,12160,026.2,045.4,0.482,743.8,01.18,0.508
2014-10-03 00:12:00,2236E-3,5C000000,-0724,0824,12329,026.1,045.4,0.482,743.7,01.18,0.508
2014-10-03 00:13:00,2298E-3,5C000000,-0724,0825,12207,026.1,045.4,0.482,743.7,01.18,0.508
2014-10-03 00:14:00,2101E-3,5C000000,-0724,0825,12167,026.1,045.4,0.482,743.8,01.18,0.508
2014-10-03 00:15:00,2185E-3,5C000000,-0724,0825,12353,026.1,045.4,0.482,743.7,01.18,0.508
2014-10-03 00:16:00,2174E-3,5C000000,-0724,0825,12179,026.1,045.4,0.482,743.8,01.18,0.508
2014-10-03 00:17:00,2122E-3,5C000000,-0724,0825,12299,026.1,045.4,0.482,743.7,01.18,0.508
2014-10-03 00:18:00,2086E-3,5C000000,-0724,0824,12042,026.1,045.4,0.482,743.7,01.18,0.508
2014-10-03 00:19:00,2105E-3,5C000000,-0724,0824,12321,026.1,045.5,0.482,743.7,01.18,0.508
2014-10-03 00:20:00,2131E-3,5C000000,-0724,0825,12244,026.1,045.4,0.482,743.7,01.18,0.508
2014-10-03 00:21:00,2075E-3,5C000000,-0724,0825,12178,026.1,045.4,0.482,743.7,01.18,0.508
2014-10-03 00:22:00,2218E-3,5C000000,-0724,0825,12274,026.2,045.4,0.482,743.7,01.18,0.508
2014-10-03 00:23:00,1958E-3,5C000000,-0724,0825,12216,026.2,045.4,0.482,743.7,01.18,0.508
2014-10-03 00:24:00,2031E-3,5C000000,-0724,0825,12285,026.3,045.4,0.482,743.7,01.18,0.508
2014-10-03 00:25:00,2199E-3,5C000000,-0724,0824,12213,026.4,045.4,0.482,743.7,01.18,0.508
2014-10-03 00:26:00,2058E-3,5C000000,-0724,0825,12298,026.5,045.5,0.482,743.7,01.18,0.508
2014-10-03 00:27:00,2174E-3,5C000000,-0724,0825,12199,026.5,045.5,0.482,743.6,01.18,0.508
2014-10-03 00:28:00,2001E-3,5C000000,-0724,0825,12240,026.5,045.4,0.481,743.6,01.18,0.508
2014-10-03 00:29:00,2128E-3,5C000000,-0724,0825,12280,026.6,045.4,0.481,743.6,01.18,0.508
2014-10-03 00:30:00,2161E-3,5C000000,-0724,0825,12062,026.6,045.4,0.481,743.7,01.18,0.508
2014-10-03 00:31:00,2014E-3,5C000000,-0724,0826,12185,026.6,045.4,0.482,743.6,01.18,0.508
2014-10-03 00:32:00,2085E-3,5C000000,-0724,0825,12293,026.6,045.4,0.482,743.6,01.18,0.508
2014-10-03 00:33:00,2054E-3,5C000000,-0724,0825,12127,026.6,045.4,0.482,743.6,01.18,0.508
2014-10-03 00:34:00,2064E-3,5C000000,-0724,0824,12244,026.6,045.4,0.482,743.6,01.18,0.508
2014-10-03 00:35:00,2178E-3,5C000000,-0724,0825,12277,026.6,045.4,0.482,743.6,01.18,0.508
2014-10-03 00:36:00,2191E-3,5C000000,-0724,0825,12305,026.6,045.4,0.482,743.6,01.18,0.508
2014-10-03 00:37:00,2259E-3,5C000000,-0724,0825,12322,026.6,045.5,0.482,743.6,01.18,0.508
2014-10-03 00:38:00,2205E-3,5C000000,-0724,0825,12397,026.5,045.4,0.482,743.6,01.18,0.508
2014-10-03 00:39:00,2230E-3,5C000000,-0724,0825,12311,026.5,045.4,0.482,743.6,01.18,0.508
2014-10-03 00:40:00,2110E-3,5C000000,-0724,0825,12382,026.5,045.4,0.482,743.6,01.18,0.508
2014-10-03 00:41:00,2148E-3,5C000000,-0724,0825,12265,026.4,045.5,0.481,743.6,01.18,0.508
2014-10-03 00:42:00,2011E-3,5C000000,-0724,0825,12191,026.4,045.4,0.481,743.6,01.18,0.508
2014-10-03 00:43:00,2081E-3,5C000000,-0724,0824,12023,026.4,045.4,0.481,743.6,01.18,0.508
2014-10-03 00:44:00,1916E-3,5C000000,-0724,0825,12284,026.4,045.4,0.482,743.6,01.18,0.508
2014-10-03 00:45:00,2192E-3,5C000000,-0724,0824,12329,026.3,045.4,0.482,743.6,01.18,0.508
2014-10-03 00:46:00,2145E-3,5C000000,-0724,0825,12275,026.3,045.4,0.482,743.6,01.18,0.508
2014-10-03 00:47:00,2055E-3,5C000000,-0724,0825,12222,026.2,045.4,0.482,743.6,01.18,0.508
2014-10-03 00:48:00,2138E-3,5C000000,-0724,0825,12309,026.2,045.4,0.482,743.5,01.18,0.508
2014-10-03 00:49:00,2096E-3,5C000000,-0724,0825,12240,026.2,045.4,0.482,743.5,01.18,0.508
2014-10-03 00:50:00,2057E-3,5C000000,-0724,0824,12403,026.2,045.4,0.482,743.5,01.18,0.508
2014-10-03 00:51:00,2131E-3,5C000000,-0724,0825,12176,026.2,045.4,0.482,743.5,01.18,0.508
2014-10-03 00:52:00,1973E-3,5C000000,-0724,0824,12143,026.2,045.4,0.482,743.5,01.18,0.508
2014-10-03 00:53:00,2099E-3,5C000000,-0724,0824,12241,026.1,045.4,0.482,743.5,01.18,0.508
2014-10-03 00:54:00,1963E-3,5C000000,-0724,0824,12130,026.1,045.4,0.482,743.5,01.18,0.508
2014-10-03 00:55:00,2040E-3,5C000000,-0724,0824,12267,026.2,045.4,0.482,743.5,01.18,0.508
2014-10-03 00:56:00,2119E-3,5C000000,-0724,0824,12126,026.2,045.4,0.482,743.5,01.18,0.508
2014-10-03 00:57:00,2008E-3,5C000000,-0724,0825,12190,026.2,045.4,0.482,743.5,01.18,0.508
2014-10-03 00:58:00,2129E-3,5C000000,-0724,0824,12304,026.2,045.4,0.481,743.5,01.18,0.508
2014-10-03 00:59:00,2018E-3,5C000000,-0724,0825,12112,026.3,045.4,0.482,743.5,01.18,0.508
2014-10-03 01:00:00,1976E-3,5C000000,-0724,0825,12501,026.3,045.5,0.482,743.5,01.18,0.508
2014-10-03 01:01:00,2023E-3,5C000000,-0724,0824,12222,026.4,045.4,0.482,743.5,01.18,0.508
2014-10-03 01:02:00,2039E-3,5C000000,-0724,0825,12306,026.5,045.5,0.482,743.5,01.18,0.508
2014-10-03 01:03:00,1959E-3,5C000000,-0724,0825,12297,026.5,045.5,0.482,743.5,01.18,0.508
2014-10-03 01:04:00,2032E-3,5C000000,-0724,0825,12315,026.5,045.5,0.481,743.5,01.18,0.508
2014-10-03 01:05:00,2149E-3,5C000000,-0724,0825,12257,026.6,045.4,0.481,743.5,01.18,0.508
2014-10-03 01:06:00,2025E-3,5C000000,-0724,0826,12445,026.6,045.4,0.481,743.5,01.18,0.508
2014-10-03 01:07:00,1993E-3,5C000000,-0724,0825,12325,026.6,045.4,0.481,743.5,01.18,0.508
2014-10-03 01:08:00,2017E-3,5C000000,-0724,0825,12249,026.6,045.4,0.481,743.5,01.18,0.508
2014-10-03 01:09:00,2072E-3,5C000000,-0724,0825,12305,026.6,045.4,0.481,743.5,01.18,0.508
2014-10-03 01:10:00,2152E-3,5C000000,-0724,0825,12336,026.6,045.4,0.482,743.5,01.18,0.508
2014-10-03 01:11:00,2017E-3,5C000000,-0724,0824,12438,026.6,045.4,0.482,743.5,01.18,0.508
2014-10-03 01:12:00,2038E-3,5C000000,-0724,0824,12248,026.6,045.4,0.482,743.5,01.18,0.508
2014-10-03 01:13:00,2050E-3,5C000000,-0724,0825,12113,026.6,045.4,0.482,743.5,01.18,0.508
2014-10-03 01:14:00,2029E-3,5C000000,-0724,0825,12143,026.6,045.4,0.482,743.5,01.18,0.508
2014-10-03 01:15:00,2144E-3,5C000000,-0724,0825,12152,026.6,045.4,0.481,743.5,01.18,0.508
2014-10-03 01:16:00,2139E-3,5C000000,-0724,0825,12361,026.6,045.5,0.481,743.4,01.18,0.508
2014-10-03 01:17:00,2075E-3,5C000000,-0724,0824,12382,026.6,045.4,0.481,743.4,01.18,0.508
2014-10-03 01:18:00,1924E-3,5C000000,-0724,0827,12311,026.6,045.4,0.481,743.4,01.18,0.508
2014-10-03 01:19:00,1958E-3,5C000000,-0724,0825,12313,026.5,045.4,0.481,743.4,01.18,0.508
2014-10-03 01:20:00,2186E-3,5C000000,-0724,0825,12351,026.5,045.4,0.481,743.4,01.18,0.508
2014-10-03 01:21:00,2013E-3,5C000000,-0724,0824,12239,026.5,045.5,0.481,743.4,01.18,0.508
2014-10-03 01:22:00,1872E-3,5C000000,-0724,0825,12032,026.5,045.4,0.481,743.4,01.18,0.508
2014-10-03 01:23:00,2162E-3,5C000000,-0724,0825,12365,026.5,045.4,0.481,743.4,01.18,0.508
2014-10-03 01:24:00,2060E-3,5C000000,-0724,0825,12241,026.4,045.4,0.482,743.4,01.18,0.508
2014-10-03 01:25:00,2027E-3,5C000000,-0724,0825,12264,026.4,045.4,0.481,743.4,01.18,0.508
2014-10-03 01:26:00,1948E-3,5C000000,-0724,0825,12129,026.4,045.4,0.481,743.4,01.18,0.508
2014-10-03 01:27:00,2100E-3,5C000000,-0724,0825,12158,026.4,045.4,0.481,743.4,01.18,0.508
2014-10-03 01:28:00,2047E-3,5C000000,-0724,0825,12108,026.4,045.4,0.481,743.4,01.18,0.508
2014-10-03 01:29:00,2170E-3,5C000000,-0724,0826,12347,026.3,045.5,0.482,743.4,01.18,0.508
2014-10-03 01:30:00,1985E-3,5C000000,-0724,0825,12268,026.3,045.4,0.482,743.4,01.18,0.508
2014-10-03 01:31:00,2101E-3,5C000000,-0724,0825,12295,026.2,045.4,0.482,743.4,01.18,0.508
2014-10-03 01:32:00,1946E-3,5C000000,-0724,0824,12235,026.2,045.4,0.481,743.4,01.18,0.508
2014-10-03 01:33:00,2071E-3,5C000000,-0724,0825,12298,026.2,045.4,0.482,743.4,01.18,0.508
2014-10-03 01:34:00,2027E-3,5C000000,-0724,0825,12172,026.2,045.4,0.482,743.3,01.18,0.508
2014-10-03 01:35:00,1963E-3,5C000000,-0724,0825,12155,026.1,045.4,0.482,743.3,01.18,0.508
2014-10-03 01:36:00,2039E-3,5C000000,-0724,0825,12203,026.1,045.4,0.482,743.3,01.18,0.508
2014-10-03 01:37:00,2029E-3,5C000000,-0724,0824,12114,026.1,045.5,0.482,743.3,01.18,0.508
2014-10-03 01:38:00,2076E-3,5C000000,-0724,0825,12180,026.1,045.4,0.482,743.3,01.18,0.508
2014-10-03 01:39:00,2054E-3,5C000000,-0724,0826,12147,026.1,045.4,0.482,743.3,01.18,0.508
2014-10-03 01:40:00,2091E-3,5C000000,-0724,0825,12213,026.1,045.4,0.482,743.3,01.18,0.508
2014-10-03 01:41:00,2040E-3,5C000000,-0724,0825,12255,026.1,045.4,0.482,743.3,01.18,0.508
2014-10-03 01:42:00,2133E-3,5C000000,-0724,0826,12105,026.1,045.4,0.482,743.3,01.18,0.508
2014-10-03 01:43:00,1956E-3,5C000000,-0724,0825,12302,026.1,045.4,0.482,743.2,01.18,0.508
2014-10-03 01:44:00,1922E-3,5C000000,-0724,0825,12200,026.2,045.4,0.482,743.2,01.18,0.508
2014-10-03 01:45:00,1949E-3,5C000000,-0724,0825,12199,026.2,045.4,0.482,743.2,01.18,0.508
2014-10-03 01:46:00,2090E-3,5C000000,-0724,0825,12273,026.2,045.4,0.482,743.2,01.18,0.508
2014-10-03 01:47:00,1986E-3,5C000000,-0724,0825,12259,026.2,045.4,0.482,743.2,01.18,0.508
2014-10-03 01:48:00,2032E-3,5C000000,-0724,0825,12109,026.3,045.4,0.482,743.2,01.18,0.508
2014-10-03 01:49:00,2087E-3,5C000000,-0724,0825,12370,026.4,045.4,0.481,743.2,01.18,0.508
2014-10-03 01:50:00,2181E-3,5C000000,-0724,0824,12120,026.4,045.4,0.481,743.2,01.18,0.508
2014-10-03 01:51:00,2015E-3,5C000000,-0724,0826,12490,026.5,045.4,0.481,743.1,01.18,0.508
2014-10-03 01:52:00,1951E-3,5C000000,-0724,0825,12229,026.5,045.4,0.482,743.1,01.18,0.508
2014-10-03 01:53:00,2138E-3,5C000000,-0724,0826,12083,026.6,045.4,0.482,743.1,01.18,0.508
2014-10-03 01:54:00,2018E-3,5C000000,-0724,0825,12154,026.6,045.4,0.481,743.1,01.18,0.508
2014-10-03 01:55:00,2174E-3,5C000000,-0724,0826,12258,026.6,045.4,0.481,743.1,01.18,0.508
2014-10-03 01:56:00,2007E-3,5C000000,-0724,0825,12234,026.6,045.4,0.481,743.1,01.18,0.508
2014-10-03 01:57:00,1967E-3,5C000000,-0724,0825,12325,026.6,045.4,0.481,743.1,01.18,0.508
2014-10-03 01:58:00,1989E-3,5C000000,-0724,0825,12395,026.6,045.5,0.481,743.1,01.18,0.508
2014-10-03 01:59:00,2087E-3,5C000000,-0724,0825,12202,026.6,045.4,0.481,743.2,01.18,0.508
2014-10-03 02:00:00,2034E-3,5C000000,-0724,0825,12403,026.6,045.4,0.481,743.1,01.18,0.508
2014-10-03 02:01:00,2105E-3,5C000000,-0724,0825,12162,026.6,045.4,0.481,743.2,01.18,0.508
2014-10-03 02:02:00,2089E-3,5C000000,-0724,0825,12409,026.6,045.4,0.481,743.2,01.18,0.508
2014-10-03 02:03:00,2129E-3,5C000000,-0724,0825,12081,026.6,045.4,0.481,743.1,01.18,0.508
2014-10-03 02:04:00,1922E-3,5C000000,-0724,0826,12325,026.6,045.4,0.481,743.1,01.18,0.508
2014-10-03 02:05:00,2186E-3,5C000000,-0724,0825,12305,026.6,045.4,0.481,743.1,01.18,0.508
2014-10-03 02:06:00,2212E-3,5C000000,-0724,0825,12299,026.7,045.4,0.481,743.1,01.18,0.508
2014-10-03 02:07:00,1826E-3,5C000000,-0724,0825,12114,026.7,045.4,0.481,743.1,01.18,0.508
2014-10-03 02:08:00,1915E-3,5C000000,-0724,0825,12330,026.7,045.5,0.481,743.1,01.18,0.508
2014-10-03 02:09:00,2038E-3,5C000000,-0724,0825,12250,026.7,045.4,0.481,743.1,01.18,0.508
2014-10-03 02:10:00,2000E-3,5C000000,-0724,0825,12132,026.7,045.5,0.481,743.1,01.18,0.508
2014-10-03 02:11:00,2012E-3,5C000000,-0724,0826,12361,026.7,045.5,0.481,743.0,01.18,0.508
2014-10-03 02:12:00,2033E-3,5C000000,-0724,0824,12067,026.7,045.4,0.481,743.0,01.18,0.508
2014-10-03 02:13:00,2040E-3,5C000000,-0724,0824,12232,026.7,045.4,0.481,743.0,01.18,0.508
2014-10-03 02:14:00,1983E-3,5C000000,-0724,0825,12273,026.6,045.5,0.481,743.0,01.18,0.508
2014-10-03 02:15:00,2095E-3,5C000000,-0724,0825,12213,026.7,045.4,0.481,743.0,01.18,0.508
2014-10-03 02:16:00,2028E-3,5C000000,-0724,0825,12232,026.6,045.4,0.481,743.0,01.18,0.508
2014-10-03 02:17:00,1943E-3,5C000000,-0724,0825,12231,026.6,045.4,0.481,743.0,01.18,0.508
2014-10-03 02:18:00,2090E-3,5C000000,-0724,0825,11880,026.6,045.4,0.481,743.0,01.18,0.508
2014-10-03 02:19:00,2057E-3,5C000000,-0724,0825,12212,026.6,045.4,0.481,743.0,01.18,0.508
2014-10-03 02:20:00,2064E-3,5C000000,-0724,0826,12316,026.6,045.4,0.481,743.0,01.18,0.508
2014-10-03 02:21:00,1934E-3,5C000000,-0724,0825,12122,026.5,045.5,0.481,743.0,01.18,0.508
2014-10-03 02:22:00,2096E-3,5C000000,-0724,0825,12250,026.5,045.5,0.481,743.0,01.18,0.508
2014-10-03 02:23:00,2161E-3,5C000000,-0724,0825,12387,026.5,045.4,0.481,743.0,01.18,0.508
2014-10-03 02:24:00,2030E-3,5C000000,-0724,0825,12241,026.4,045.4,0.481,743.0,01.18,0.508
2014-10-03 02:25:00,2259E-3,5C000000,-0724,0825,12075,026.3,045.4,0.482,743.0,01.18,0.508
2014-10-03 02:26:00,2122E-3,5C000000,-0724,0826,12291,026.2,045.4,0.481,743.0,01.18,0.508
2014-10-03 02:27:00,2000E-3,5C000000,-0724,0825,12348,026.1,045.4,0.481,743.0,01.18,0.508
2014-10-03 02:28:00,2104E-3,5C000000,-0724,0825,12207,026.1,045.4,0.482,743.0,01.18,0.508
2014-10-03 02:29:00,2074E-3,5C000000,-0724,0825,12208,026.0,045.4,0.482,743.0,01.18,0.508
2014-10-03 02:30:00,2225E-3,5C000000,-0724,0826,12302,026.1,045.4,0.482,743.0,01.18,0.508
2014-10-03 02:31:00,2109E-3,5C000000,-0724,0826,12236,026.1,045.4,0.482,742.9,01.18,0.508
2014-10-03 02:32:00,2099E-3,5C000000,-0724,0824,12387,026.1,045.4,0.482,742.9,01.18,0.508
2014-10-03 02:33:00,2117E-3,5C000000,-0724,0825,12278,026.1,045.4,0.482,742.9,01.18,0.508
2014-10-03 02:34:00,2140E-3,5C000000,-0724,0825,12111,026.1,045.5,0.482,742.9,01.18,0.508
2014-10-03 02:35:00,2056E-3,5C000000,-0724,0825,12243,026.2,045.5,0.482,742.9,01.18,0.508
2014-10-03 02:36:00,2147E-3,5C000000,-0724,0825,12317,026.2,045.5,0.482,742.9,01.18,0.508
2014-10-03 02:37:00,2103E-3,5C000000,-0724,0826,12278,026.3,045.4,0.482,742.9,01.18,0.508
2014-10-03 02:38:00,2144E-3,5C000000,-0724,0825,12263,026.3,045.4,0.481,742.9,01.18,0.508
2014-10-03 02:39:00,2108E-3,5C000000,-0724,0826,12159,026.4,045.4,0.481,742.9,01.18,0.508
2014-10-03 02:40:00,2058E-3,5C000000,-0724,0825,12246,026.5,045.4,0.482,742.9,01.18,0.508
2014-10-03 02:41:00,2127E-3,5C000000,-0724,0826,12260,026.5,045.4,0.482,742.8,01.18,0.508
2014-10-03 02:42:00,1964E-3,5C000000,-0724,0825,12345,026.5,045.4,0.481,742.8,01.18,0.508
2014-10-03 02:43:00,2070E-3,5C000000,-0724,0825,12332,026.6,045.4,0.481,742.9,01.18,0.508
2014-10-03 02:44:00,2010E-3,5C000000,-0724,0825,12326,026.6,045.4,0.481,742.8,01.18,0.508
2014-10-03 02:45:00,2040E-3,5C000000,-0724,0826,12190,026.6,045.4,0.481,742.8,01.18,0.508
2014-10-03 02:46:00,2127E-3,5C000000,-0724,0825,12081,026.6,045.4,0.481,742.8,01.18,0.508
2014-10-03 02:47:00,2040E-3,5C000000,-0724,0825,12250,026.6,045.4,0.481,742.8,01.18,0.508
2014-10-03 02:48:00,1986E-3,5C000000,-0724,0826,12049,026.6,045.4,0.481,742.8,01.18,0.508
2014-10-03 02:49:00,2012E-3,5C000000,-0724,0825,12298,026.6,045.4,0.481,742.8,01.18,0.508
2014-10-03 02:50:00,1995E-3,5C000000,-0724,0826,12225,026.6,045.5,0.481,742.8,01.18,0.508
2014-10-03 02:51:00,2156E-3,5C000000,-0724,0825,12157,026.6,045.5,0.481,742.7,01.18,0.508
2014-10-03 02:52:00,2152E-3,5C000000,-0724,0826,12103,026.6,045.4,0.481,742.8,01.18,0.508
2014-10-03 02:53:00,2039E-3,5C000000,-0724,0827,12311,026.6,045.4,0.481,742.8,01.18,0.508
2014-10-03 02:54:00,2059E-3,5C000000,-0724,0827,12182,026.6,045.4,0.481,742.7,01.18,0.508
2014-10-03 02:55:00,1984E-3,5C000000,-0724,0825,12212,026.6,045.4,0.481,742.7,01.18,0.508
2014-10-03 02:56:00,2087E-3,5C000000,-0724,0826,12261,026.6,045.4,0.481,742.8,01.18,0.508
2014-10-03 02:57:00,1981E-3,5C000000,-0724,0826,12106,026.6,045.4,0.481,742.7,01.18,0.508
2014-10-03 02:58:00,2086E-3,5C000000,-0724,0826,12237,026.5,045.4,0.481,742.7,01.18,0.508
2014-10-03 02:59:00,2224E-3,5C000000,-0724,0825,12328,026.5,045.4,0.481,742.7,01.18,0.508
2014-10-03 03:00:00,1956E-3,5C000000,-0724,0825,12257,026.3,045.4,0.481,742.7,01.18,0.508
2014-10-03 03:01:00,1958E-3,5C000000,-0724,0826,12238,026.2,045.4,0.481,742.7,01.18,0.508
2014-10-03 03:02:00,2034E-3,5C000000,-0724,0825,12347,026.2,045.4,0.482,742.8,01.18,0.508
2014-10-03 03:03:00,2110E-3,5C000000,-0724,0825,12229,026.1,045.4,0.482,742.7,01.18,0.508
2014-10-03 03:04:00,1990E-3,5C000000,-0724,0825,12361,026.1,045.4,0.482,742.7,01.18,0.508
2014-10-03 03:05:00,1997E-3,5C000000,-0724,0826,12254,026.1,045.4,0.482,742.7,01.18,0.508
2014-10-03 03:06:00,2023E-3,5C000000,-0724,0826,12138,026.1,045.4,0.482,742.7,01.18,0.508
2014-10-03 03:07:00,2007E-3,5C000000,-0724,0826,12250,026.1,045.4,0.482,742.7,01.18,0.508
2014-10-03 03:08:00,2081E-3,5C000000,-0724,0825,12276,026.1,045.4,0.482,742.7,01.18,0.508
2014-10-03 03:09:00,1920E-3,5C000000,-0724,0825,12218,026.1,045.4,0.482,742.7,01.18,0.508
2014-10-03 03:10:00,1987E-3,5C000000,-0724,0826,12212,026.2,045.4,0.482,742.7,01.18,0.508
2014-10-03 03:11:00,1905E-3,5C000000,-0724,0825,12189,026.2,045.4,0.482,742.7,01.18,0.508
2014-10-03 03:12:00,1990E-3,5C000000,-0724,0826,12223,026.2,045.4,0.481,742.7,01.18,0.508
2014-10-03 03:13:00,2034E-3,5C000000,-0724,0826,12243,026.3,045.4,0.481,742.7,01.18,0.508
2014-10-03 03:14:00,2040E-3,5C000000,-0724,0825,12168,026.3,045.4,0.482,742.7,01.18,0.508
2014-10-03 03:15:00,1823E-3,5C000000,-0724,0826,12299,026.4,045.5,0.482,742.6,01.18,0.508
2014-10-03 03:16:00,2107E-3,5C000000,-0724,0825,12118,026.4,045.4,0.481,742.6,01.18,0.508
2014-10-03 03:17:00,2093E-3,5C000000,-0724,0825,12217,026.4,045.4,0.481,742.6,01.18,0.508
2014-10-03 03:18:00,2118E-3,5C000000,-0724,0826,12152,026.5,045.5,0.481,742.6,01.18,0.508
2014-10-03 03:19:00,2007E-3,5C000000,-0724,0825,12315,026.5,045.4,0.481,742.6,01.18,0.508
2014-10-03 03:20:00,1940E-3,5C000000,-0724,0826,12205,026.5,045.5,0.481,742.6,01.18,0.508
2014-10-03 03:21:00,1939E-3,5C000000,-0724,0826,12109,026.5,045.5,0.481,742.6,01.18,0.508
2014-10-03 03:22:00,2012E-3,5C000000,-0724,0826,12368,026.5,045.4,0.481,742.7,01.18,0.508
2014-10-03 03:23:00,1938E-3,5C000000,-0724,0825,12280,026.5,045.4,0.481,742.7,01.18,0.508
2014-10-03 03:24:00,1959E-3,5C000000,-0724,0826,12061,026.5,045.4,0.481,742.6,01.18,0.508
2014-10-03 03:25:00,1936E-3,5C000000,-0724,0825,12310,026.5,045.4,0.481,742.6,01.18,0.508
2014-10-03 03:26:00,2011E-3,5C000000,-0724,0826,12248,026.5,045.4,0.481,742.6,01.18,0.508
2014-10-03 03:27:00,2081E-3,5C000000,-0724,0826,12161,026.5,045.4,0.481,742.6,01.18,0.508
2014-10-03 03:28:00,2082E-3,5C000000,-0724,0826,12312,026.5,045.5,0.481,742.6,01.18,0.508
2014-10-03 03:29:00,2123E-3,5C000000,-0724,0826,12116,026.5,045.4,0.481,742.6,01.18,0.508
2014-10-03 03:30:00,2065E-3,5C000000,-0724,0826,12338,026.4,045.4,0.481,742.6,01.18,0.508
2014-10-03 03:31:00,1930E-3,5C000000,-0724,0825,12259,026.3,045.4,0.481,742.6,01.18,0.508
2014-10-03 03:32:00,2073E-3,5C000000,-0724,0826,12326,026.2,045.4,0.481,742.6,01.18,0.508
2014-10-03 03:33:00,2097E-3,5C000000,-0724,0826,12291,026.1,045.4,0.482,742.6,01.18,0.508
2014-10-03 03:34:00,1992E-3,5C000000,-0724,0825,12244,026.1,045.4,0.482,742.6,01.18,0.508
2014-10-03 03:35:00,1998E-3,5C000000,-0724,0825,12263,026.0,045.4,0.482,742.6,01.18,0.508
2014-10-03 03:36:00,2042E-3,5C000000,-0724,0825,12243,026.0,045.4,0.482,742.6,01.18,0.508
2014-10-03 03:37:00,2099E-3,5C000000,-0724,0825,12332,026.1,045.4,0.482,742.6,01.18,0.508
2014-10-03 03:38:00,2023E-3,5C000000,-0724,0825,12179,026.0,045.4,0.482,742.6,01.18,0.508
2014-10-03 03:39:00,2053E-3,5C000000,-0724,0826,12205,026.1,045.4,0.482,742.5,01.18,0.508
2014-10-03 03:40:00,2066E-3,5C000000,-0724,0825,12336,026.0,045.5,0.482,742.5,01.18,0.508
2014-10-03 03:41:00,2049E-3,5C000000,-0724,0825,12388,026.0,045.4,0.482,742.5,01.18,0.508
2014-10-03 03:42:00,2059E-3,5C000000,-0724,0825,12393,026.1,045.4,0.482,742.5,01.18,0.508
2014-10-03 03:43:00,2130E-3,5C000000,-0724,0825,12294,026.0,045.4,0.482,742.5,01.18,0.508
2014-10-03 03:44:00,2035E-3,5C000000,-0724,0826,12251,026.0,045.4,0.481,742.5,01.18,0.508
2014-10-03 03:45:00,2002E-3,5C000000,-0724,0826,12412,026.1,045.4,0.482,742.5,01.18,0.508
2014-10-03 03:46:00,2053E-3,5C000000,-0724,0825,12150,026.1,045.4,0.482,742.5,01.18,0.508
2014-10-03 03:47:00,1941E-3,5C000000,-0724,0826,12361,026.1,045.4,0.482,742.5,01.18,0.508
2014-10-03 03:48:00,1852E-3,5C000000,-0724,0825,12261,026.1,045.4,0.482,742.5,01.18,0.508
2014-10-03 03:49:00,1842E-3,5C000000,-0724,0825,12237,026.1,045.4,0.481,742.5,01.18,0.508
2014-10-03 03:50:00,1910E-3,5C000000,-0724,0826,12246,026.2,045.4,0.482,742.5,01.18,0.508
2014-10-03 03:51:00,2047E-3,5C000000,-0724,0826,12267,026.2,045.4,0.482,742.5,01.18,0.508
2014-10-03 03:52:00,1918E-3,5C000000,-0724,0825,12070,026.3,045.4,0.481,742.5,01.18,0.508
2014-10-03 03:53:00,1968E-3,5C000000,-0724,0826,12266,026.3,045.4,0.481,742.5,01.18,0.508
2014-10-03 03:54:00,1831E-3,5C000000,-0724,0825,12192,026.4,045.4,0.482,742.5,01.18,0.508
2014-10-03 03:55:00,1955E-3,5C000000,-0724,0826,12362,026.4,045.4,0.481,742.5,01.18,0.508
2014-10-03 03:56:00,1956E-3,5C000000,-0724,0826,12219,026.5,045.4,0.481,742.5,01.18,0.508
2014-10-03 03:57:00,1882E-3,5C000000,-0724,0825,12266,026.5,045.4,0.481,742.5,01.18,0.508
2014-10-03 03:58:00,2057E-3,5C000000,-0724,0825,12075,026.5,045.4,0.481,742.5,01.18,0.508
2014-10-03 03:59:00,2020E-3,5C000000,-0724,0825,12336,026.5,045.4,0.481,742.5,01.18,0.508
2014-10-03 04:00:00,1932E-3,5C000000,-0724,0826,12319,026.5,045.4,0.481,742.5,01.18,0.508
2014-10-03 04:01:00,2028E-3,5C000000,-0724,0825,12269,026.5,045.4,0.481,742.5,01.18,0.508
2014-10-03 04:02:00,1858E-3,5C000000,-0724,0825,12251,026.5,045.4,0.481,742.5,01.18,0.508
2014-10-03 04:03:00,1918E-3,5C000000,-0724,0825,12118,026.5,045.4,0.481,742.5,01.18,0.508
2014-10-03 04:04:00,2045E-3,5C000000,-0724,0826,12116,026.5,045.4,0.481,742.5,01.18,0.508
2014-10-03 04:05:00,1948E-3,5C000000,-0724,0825,12278,026.5,045.4,0.481,742.5,01.18,0.508
2014-10-03 04:06:00,1970E-3,5C000000,-0724,0826,12423,026.5,045.4,0.481,742.5,01.18,0.508
2014-10-03 04:07:00,1935E-3,5C000000,-0724,0825,12019,026.4,045.4,0.481,742.5,01.18,0.508
2014-10-03 04:08:00,1979E-3,5C000000,-0724,0827,12248,026.3,045.4,0.481,742.5,01.18,0.508
2014-10-03 04:09:00,2057E-3,5C000000,-0724,0825,12259,026.2,045.4,0.481,742.5,01.18,0.508
2014-10-03 04:10:00,1788E-3,5C000000,-0724,0826,12267,026.1,045.4,0.481,742.5,01.18,0.508
2014-10-03 04:11:00,2017E-3,5C000000,-0724,0825,12243,026.1,045.4,0.482,742.5,01.18,0.508
2014-10-03 04:12:00,1893E-3,5C000000,-0724,0827,12239,026.0,045.4,0.482,742.4,01.18,0.508
2014-10-03 04:13:00,1990E-3,5C000000,-0724,0826,12280,026.0,045.4,0.482,742.4,01.18,0.508
2014-10-03 04:14:00,1932E-3,5C000000,-0724,0825,12213,026.0,045.4,0.482,742.4,01.18,0.508
2014-10-03 04:15:00,1896E-3,5C000000,-0724,0825,12402,026.0,045.4,0.482,742.4,01.18,0.508
2014-10-03 04:16:00,1892E-3,5C000000,-0724,0826,12368,026.0,045.4,0.482,742.4,01.18,0.508
2014-10-03 04:17:00,1961E-3,5C000000,-0724,0826,12143,026.0,045.4,0.482,742.4,01.18,0.508
2014-10-03 04:18:00,1869E-3,5C000000,-0724,0826,12221,026.0,045.4,0.482,742.4,01.18,0.508
2014-10-03 04:19:00,2010E-3,5C000000,-0724,0826,12248,026.0,045.4,0.482,742.4,01.18,0.508
2014-10-03 04:20:00,1907E-3,5C000000,-0724,0826,12267,026.0,045.4,0.482,742.4,01.18,0.508